Temperature
17 17 18 18 15 14 15 17 18 20 20 22 22 21 18 18 19 19 18 18 17 16 16 15 15 14 14 14 13 13 13 13 12 12 11 11 11 11 11 11 11 11 11 12 12 12 12 13 12
17 17 18 18 14 15 16 17 19 20 21 22 22 21 19 18 19 19 18 17 17 17 16 15 15 14 14 14 13 13 13 12 12 12 11 11 11 11 11 11 11 11 12 12 12 12 12 12 12
17 18 18 14 14 15 17 18 18 20 22 23 21 21 20 20 20 20 19 18 17 17 16 15 15 14 14 14 13 13 13 12 12 12 12 11 11 11 11 11 11 11 12 12 12 12 12 12 12
18 18 17 14 16 16 18 18 19 20 22 22 21 19 20 20 21 20 19 18 18 17 16 15 15 14 14 14 13 13 13 12 12 11 11 11 11 11 11 11 11 11 11 11 12 12 12 12 12
17 17 15 15 16 17 18 19 21 20 21 21 21 18 19 20 20 20 20 19 18 17 16 16 15 14 14 14 13 13 13 12 12 11 11 11 11 11 11 11 11 11 11 11 11 11 11 11 11
17 15 14 14 16 18 18 21 21 20 21 21 20 18 19 20 20 20 20 19 18 18 17 16 15 15 14 14 13 13 13 12 12 11 11 11 11 11 11 11 11 11 11 11 11 11 11 11 11
16 14 14 16 17 18 19 21 21 19 20 21 21 18 18 19 19 19 19 19 18 17 17 16 15 15 14 14 13 13 13 12 12 12 11 11 11 11 11 11 11 11 11 11 11 10 10 10 10
18 14 15 16 17 18 20 21 22 21 21 22 22 18 18 19 18 18 18 18 17 17 17 16 16 15 14 14 13 13 13 12 12 12 11 11 11 11 11 11 11 11 11 10 10 10 10 10 10
17 14 14 16 17 18 20 21 22 22 22 21 21 22 22 19 18 17 17 16 16 16 16 16 16 15 14 14 13 13 12 12 12 12 11 11 11 11 11 11 10 10 10 10 10 10 9 9 9
16 13 15 17 18 18 19 20 21 21 20 20 21 21 21 19 18 18 17 17 17 17 16 16 16 15 15 14 13 13 12 12 12 12 11 11 11 11 10 10 10 10 10 10 9 9 9 9 9
15 14 16 18 19 19 19 20 21 20 19 20 21 21 20 19 18 18 18 19 19 18 17 16 16 15 15 14 13 13 12 12 12 11 11 11 11 10 10 10 10 10 9 9 9 9 9 9 9
15 16 17 18 19 19 19 20 20 20 21 21 22 21 20 19 19 19 19 19 18 18 17 17 16 15 15 14 14 13 12 12 12 11 11 11 11 10 10 10 10 9 9 9 9 9 9 9 9
15 16 18 18 19 19 19 19 19 20 21 21 21 20 20 20 20 19 19 19 18 18 17 17 16 16 15 14 14 13 13 12 12 12 11 11 11 10 10 10 10 10 9 9 9 9 9 9 9
16 17 17 18 18 19 18 18 18 20 21 21 20 20 20 20 20 19 18 18 18 18 18 17 16 16 15 15 14 14 13 12 12 12 11 11 11 10 10 10 10 10 9 9 9 9 9 9 9
17 16 16 16 17 18 18 16 16 20 20 20 20 20 20 20 20 19 19 19 18 18 18 17 17 16 15 15 14 13 13 12 12 12 11 11 11 10 10 10 10 10 9 9 9 9 9 9 9
16 15 14 16 16 17 17 15 16 20 19 19 19 20 19 20 20 20 20 19 19 18 18 17 16 16 15 15 14 13 13 12 12 11 11 11 10 10 10 10 10 10 9 9 9 9 9 9 9
14 13 14 15 16 16 15 15 16 20 19 18 19 20 20 20 20 20 20 20 19 19 18 17 16 16 15 15 14 13 13 12 12 11 11 11 10 10 10 10 10 10 10 9 9 10 9 9 9
12 12 14 14 16 15 14 15 15 18 18 18 19 20 20 20 20 20 20 20 19 19 18 17 17 16 15 14 13 12 12 12 11 11 11 11 10 10 10 10 10 10 10 10 10 10 10 9 9
14 14 14 15 16 15 14 15 16 17 16 16 18 19 20 20 21 21 20 20 20 19 18 18 17 16 15 14 13 12 12 12 11 11 11 11 10 10 10 10 10 10 10 10 10 10 9 9 9
14 14 14 14 16 15 14 14 15 15 15 17 18 19 20 20 20 20 20 20 20 19 19 18 17 16 15 15 14 13 13 12 11 11 11 10 10 10 10 10 10 10 10 10 10 10 9 9 9
13 13 13 14 15 16 15 14 14 15 16 17 18 19 20 20 20 20 20 20 20 19 19 18 18 17 16 15 14 13 12 11 11 11 11 10 10 10 10 10 10 10 10 10 10 10 9 9 9
13 14 14 14 14 13 14 12 13 14 15 15 17 18 19 20 20 20 20 20 20 19 19 18 18 17 16 15 14 13 12 12 11 11 11 11 10 10 10 10 10 10 10 10 10 9 9 9 9
14 15 14 14 13 12 12 12 12 13 14 15 16 18 19 20 20 20 20 20 20 19 19 18 18 17 16 15 14 13 13 12 12 11 11 10 10 10 10 10 10 10 10 10 9 9 9 9 9
14 14 14 12 12 12 12 12 12 13 14 15 16 18 19 20 20 20 20 19 19 19 18 18 17 16 16 15 14 13 13 12 12 11 11 10 10 10 10 10 10 10 10 9 9 9 9 9 8
13 12 12 11 10 11 12 12 12 13 14 15 16 17 19 19 19 19 19 19 19 18 18 17 17 16 15 14 14 13 13 12 12 12 11 11 10 10 10 10 10 10 9 9 9 9 9 8 8
13 13 11 11 10 11 11 11 13 14 15 16 17 18 18 19 19 19 19 19 18 18 17 17 16 16 15 14 14 13 12 12 12 11 11 11 11 11 10 10 10 9 9 9 9 9 8 8 8
12 13 13 11 10 11 11 11 13 14 14 14 15 16 17 18 19 19 19 18 18 17 17 16 16 15 15 14 13 12 12 12 11 11 11 11 10 10 10 10 9 9 9 9 9 8 8 8 7
13 13 12 11 10 11 11 11 13 14 14 14 14 14 17 18 18 18 18 18 17 17 16 16 15 15 14 13 13 12 12 11 11 11 11 10 10 10 10 10 9 9 9 9 8 8 8 7 7
12 12 12 11 10 10 10 11 13 14 14 14 14 16 17 18 18 18 18 17 17 16 16 15 14 14 13 13 12 12 11 11 11 10 10 10 10 10 10 9 9 9 9 8 8 8 7 7 7
12 12 12 11 10 10 10 12 14 13 14 14 15 16 17 18 18 18 17 17 16 16 15 14 14 13 13 12 12 11 11 11 10 10 10 10 9 9 9 9 9 9 8 8 8 7 7 7 6
Wind_Speed
5 3 3 4 5 4 4 6 5 3 2 1 5 10 10 7 4 5 4 13 15 16 20 22 22 21 20 19 19 18 17 15 15 14 14 14 14 14 14 14 14 14 14 15 15 15 14 14 14
2 2 4 5 5 1 6 5 5 6 6 6 7 8 7 4 3 9 8 13 19 19 20 21 22 21 21 20 19 18 17 16 15 15 14 14 13 13 13 13 13 13 14 14 14 13 13 13 13
2 2 4 4 4 6 5 5 7 4 5 4 5 6 8 8 7 10 10 18 18 17 20 22 23 22 21 20 20 19 17 16 15 15 14 13 13 13 13 13 12 12 12 12 12 12 12 12 11
3 4 4 3 6 7 6 6 5 5 2 4 7 7 4 5 9 9 17 19 18 14 19 23 24 22 22 21 20 19 18 17 16 15 14 13 13 12 12 12 11 11 11 11 11 10 10 10 10
4 4 2 2 6 6 6 7 6 6 5 4 7 7 2 3 6 16 21 20 19 14 19 22 24 23 22 22 21 19 18 17 16 15 14 13 13 12 11 11 10 10 9 9 9 9 9 9 8
4 4 2 4 6 5 5 7 6 5 4 4 7 7 2 2 13 18 19 19 18 17 18 21 24 23 23 22 21 20 19 18 17 16 14 13 13 12 11 10 9 8 8 7 7 7 7 7 7
4 4 4 5 4 5 6 5 7 7 5 7 10 8 3 4 10 14 14 15 14 16 16 17 20 22 22 22 21 20 19 18 17 16 14 14 13 11 10 9 8 7 6 6 5 5 5 5 5
5 4 3 4 5 6 5 4 5 8 6 5 8 11 8 10 9 11 11 12 13 12 12 13 16 18 19 20 21 20 19 18 17 16 15 14 12 11 10 9 8 7 6 4 3 3 2 3 4
5 3 4 5 5 5 3 2 2 4 6 4 3 8 9 15 14 14 11 10 11 13 11 11 13 15 17 18 20 20 19 18 17 16 15 14 12 11 9 9 8 6 5 3 2 1 1 2 4
5 5 8 5 4 3 2 1 3 4 5 3 4 4 10 17 18 18 17 18 17 17 15 13 12 14 16 17 17 17 17 17 16 15 15 14 12 11 10 9 8 7 5 3 2 2 2 3 4
7 8 6 6 5 3 2 2 0 6 4 6 8 9 14 15 17 18 19 20 20 19 18 16 14 15 15 12 14 14 14 14 15 16 16 14 12 10 10 8 7 6 5 4 4 4 4 4 3
6 7 6 5 4 3 3 2 1 4 7 7 11 17 18 18 19 20 20 18 16 17 18 16 15 14 15 14 13 13 12 12 13 15 16 13 9 8 8 8 8 7 6 5 4 3 3 2 2
8 7 7 8 6 5 4 4 3 5 6 3 8 14 17 19 18 17 16 15 14 18 18 18 17 16 14 12 11 13 12 13 15 15 16 15 10 7 8 7 7 7 6 5 3 2 1 1 2
8 9 10 9 8 6 6 6 4 8 5 4 9 14 16 18 18 14 12 13 16 18 19 18 19 17 15 12 10 11 14 15 15 15 16 17 14 10 8 6 6 6 6 6 4 2 1 1 2
6 6 8 8 8 6 5 9 10 11 6 6 9 13 15 16 15 16 17 17 18 19 19 19 20 18 17 15 13 13 15 16 14 15 17 17 15 13 10 6 5 6 7 6 4 2 2 2 2
3 5 8 8 8 7 8 12 12 10 8 11 11 11 13 15 15 17 17 16 17 17 18 19 18 18 18 15 13 12 14 15 14 16 16 17 16 15 11 6 5 7 7 5 3 2 2 2 2
4 7 8 7 7 8 10 11 11 8 8 11 12 12 13 14 14 16 16 17 17 19 19 20 19 20 19 16 12 11 12 12 14 15 15 16 16 15 12 7 7 8 6 4 2 2 2 1 1
9 7 7 9 6 9 11 13 12 8 9 12 12 12 12 14 17 15 17 17 17 18 19 20 19 19 17 13 10 8 9 9 11 13 14 16 15 15 13 8 8 9 5 3 3 3 2 1 1
8 8 8 8 6 7 12 15 16 13 9 11 12 12 13 15 15 13 14 15 14 15 17 19 19 18 16 13 13 12 11 10 8 9 14 16 16 15 13 8 7 7 5 5 5 3 3 2 2
10 10 9 7 6 7 10 15 14 13 11 12 14 14 15 14 12 11 11 12 15 18 19 20 20 19 19 15 13 10 9 7 7 7 11 15 16 16 13 9 7 6 5 5 4 4 3 1 2
14 14 13 8 4 3 4 9 11 10 10 11 11 12 13 15 15 12 12 13 15 17 20 20 21 19 18 14 10 8 6 4 5 7 8 10 15 15 14 12 9 7 6 6 5 5 5 3 1
19 14 12 10 6 6 5 7 9 9 10 11 13 13 14 14 13 12 12 13 15 18 17 18 19 18 17 16 16 17 12 9 9 8 7 8 13 14 15 13 11 8 6 7 6 5 4 5 3
10 9 11 10 9 8 6 6 9 7 11 13 14 15 14 13 13 13 13 14 14 14 15 15 16 16 16 17 18 18 11 8 6 7 9 9 8 11 13 13 11 8 6 7 7 6 5 4 4
8 5 4 3 4 12 14 10 9 8 11 10 11 12 12 11 11 11 10 9 10 10 11 13 15 15 16 17 17 18 15 12 12 11 11 9 6 6 9 12 11 9 7 7 7 6 7 5 4
10 8 5 6 7 11 9 10 11 11 11 13 14 13 12 10 9 9 9 10 11 12 12 13 16 15 16 17 17 17 17 17 16 14 13 11 8 6 9 8 8 8 8 8 7 6 6 6 5
17 16 11 9 8 5 6 11 10 12 11 11 11 11 10 9 9 10 11 11 12 13 13 14 15 14 16 17 16 15 15 13 12 13 12 13 10 9 10 9 10 9 10 9 7 5 5 5 5
16 16 11 6 4 4 7 7 8 6 7 9 10 9 10 10 10 10 9 10 11 12 13 14 15 13 15 16 14 14 14 13 13 12 11 10 8 8 10 10 9 9 9 9 7 5 5 5 5
13 13 7 8 9 8 7 7 7 8 12 11 11 11 11 9 9 9 9 9 10 10 10 11 12 13 13 14 14 12 13 13 13 12 13 12 11 10 11 10 10 9 8 8 7 6 5 6 5
11 13 9 8 7 8 6 8 9 12 13 13 14 12 11 11 10 9 8 8 8 8 9 10 10 10 11 12 12 12 12 12 13 13 13 13 11 12 13 12 11 10 10 9 8 7 7 7 5
12 13 13 14 9 8 6 9 7 11 12 13 13 11 10 10 9 8 8 8 8 9 9 10 10 11 11 11 11 12 11 12 12 12 12 12 13 12 12 11 11 10 10 9 9 8 7 7 7
Wind_Direction
313 359 78 60 60 58 242 244 217 201 156 156 111 107 113 114 141 156 140 143 142 150 158 156 154 150 147 142 136 132 129 126 122 117 112 108 104 101 97 94 90 88 85 82 79 77 76 75 75
351 52 63 64 97 179 256 239 202 202 176 147 102 99 95 92 115 125 131 152 147 151 154 155 155 151 147 143 140 136 133 131 127 123 118 113 109 105 102 98 95 92 88 85 82 79 76 75 75
349 93 88 86 153 197 230 221 189 193 184 135 93 89 128 148 150 157 160 150 145 150 153 157 156 153 150 147 143 141 139 136 132 128 123 118 114 110 106 103 99 95 91 87 83 80 76 74 73
56 49 62 96 233 230 217 222 177 140 112 89 111 92 122 161 170 161 146 146 146 149 154 160 158 156 154 151 149 147 144 140 137 133 129 125 121 116 111 108 104 99 94 89 84 79 75 71 70
65 79 76 263 248 248 223 217 185 152 155 129 113 115 111 352 142 139 146 150 151 152 157 162 161 159 157 155 154 152 149 146 143 138 135 132 127 123 118 114 109 104 98 92 87 80 74 69 66
64 80 129 239 251 261 241 207 169 163 165 137 118 119 134 98 138 149 152 153 154 156 159 163 164 162 161 159 158 156 154 151 148 145 142 138 135 133 129 125 120 114 108 101 93 85 77 69 62
130 129 205 231 251 262 240 201 161 165 167 175 140 123 145 169 161 149 148 148 151 156 158 163 166 165 164 162 161 160 159 156 154 152 149 146 144 141 138 136 132 126 118 110 99 86 72 58 46
151 130 240 240 229 245 233 184 168 158 175 161 133 144 178 195 160 134 134 143 151 156 160 160 162 164 164 164 165 164 164 162 161 158 155 153 152 150 149 148 147 143 136 125 112 92 58 29 12
125 117 228 231 216 242 255 179 168 153 124 101 127 176 183 152 141 133 136 146 159 166 168 164 162 163 163 164 168 167 168 168 166 163 161 160 159 159 159 165 166 163 160 156 152 110 5 348 338
138 186 224 226 217 242 297 210 174 117 110 97 58 55 127 145 153 157 163 169 173 177 178 174 169 166 165 169 170 170 169 170 168 167 166 167 170 172 176 185 184 182 185 200 229 273 307 319 321
177 203 228 255 263 272 301 306 223 136 168 180 172 159 149 160 166 172 177 180 182 179 179 179 176 172 171 171 169 170 169 169 170 172 173 173 176 183 189 193 198 201 207 229 264 290 304 306 298
209 233 225 242 256 259 254 274 299 180 203 193 178 164 164 173 180 183 184 186 180 178 184 181 178 176 176 173 173 172 171 173 176 180 180 177 177 183 186 192 201 204 209 224 248 278 297 308 312
231 249 247 241 240 228 228 236 240 249 242 196 160 164 176 184 191 194 190 183 178 183 185 182 180 179 178 174 176 178 178 180 183 186 188 183 179 183 187 196 201 205 205 205 211 231 297 358 6
223 233 251 253 247 239 231 248 228 245 232 178 169 182 193 195 197 195 190 187 187 188 187 183 183 182 178 180 181 181 183 184 185 188 189 187 184 183 183 187 191 197 197 195 185 174 112 40 23
220 239 264 248 229 228 219 261 239 238 234 223 207 202 204 208 204 201 199 196 194 191 186 184 185 182 182 183 182 182 184 184 185 189 190 188 187 185 181 178 183 190 185 171 151 120 85 53 33
191 210 241 251 215 206 182 248 253 245 226 236 229 218 214 218 213 211 207 202 197 190 186 186 185 184 185 183 181 180 182 182 185 187 187 188 188 185 176 171 178 178 163 149 134 111 87 52 32
211 207 222 252 220 192 191 238 254 244 217 234 237 229 223 225 225 220 212 206 198 193 188 185 184 184 185 182 179 176 177 180 183 184 185 186 185 182 173 170 172 163 144 136 130 101 110 80 356
203 203 211 220 228 190 210 235 250 250 219 231 238 236 231 229 229 221 214 207 200 194 189 187 184 183 180 177 171 170 174 179 180 182 185 184 181 177 169 165 163 155 138 136 130 116 90 86 2
186 195 218 230 226 197 223 238 245 245 236 237 238 238 237 236 237 227 215 204 195 190 187 186 184 181 177 179 179 181 186 183 182 184 184 181 177 173 167 160 157 155 155 159 149 129 106 59 33
213 223 233 257 245 213 237 248 249 244 235 232 232 233 234 238 241 232 214 197 192 190 188 186 186 183 182 185 184 182 174 176 179 179 181 180 176 174 171 163 162 159 152 151 148 137 126 91 65
217 219 225 234 289 286 266 276 261 257 241 241 236 233 234 233 233 226 210 200 192 191 189 188 188 185 184 175 165 151 139 136 167 182 183 180 176 173 172 170 163 161 159 163 164 153 145 147 80
225 215 213 223 233 255 220 265 264 250 256 247 243 241 239 236 229 221 207 197 195 195 190 187 185 183 181 173 173 173 178 183 187 179 176 173 174 172 172 169 165 164 161 161 164 157 149 144 155
211 192 204 218 221 244 239 244 266 248 246 246 243 242 240 233 223 217 208 200 196 190 185 184 181 181 179 179 179 180 182 177 159 160 165 170 173 172 171 168 165 163 162 162 159 154 152 152 160
178 151 180 213 213 242 229 222 263 225 222 233 237 236 234 229 219 215 207 192 187 181 179 178 179 182 180 181 181 183 179 168 164 169 174 175 172 172 173 168 167 166 164 165 165 163 161 162 160
175 165 190 213 221 239 211 215 246 229 221 220 228 232 230 219 204 201 192 185 181 178 178 178 180 182 181 182 183 185 182 177 179 178 179 177 176 181 182 170 170 169 169 167 161 162 167 166 168
194 184 190 198 207 237 197 223 244 237 228 224 224 222 217 209 205 202 197 190 186 183 179 178 181 181 181 183 185 183 180 182 185 182 181 185 188 185 176 172 173 171 168 167 163 161 172 172 178
190 202 186 164 184 208 232 253 283 243 226 220 216 210 210 207 204 203 198 191 185 183 183 182 181 180 182 183 181 181 181 182 182 180 179 182 181 175 172 172 171 170 169 168 163 171 178 178 188
189 177 170 185 189 222 249 235 228 216 213 213 210 210 212 207 202 201 197 191 187 183 180 178 180 182 180 179 181 184 183 182 179 178 182 181 177 173 172 174 173 172 172 170 169 173 181 183 195
179 186 180 179 191 190 226 246 216 211 207 206 213 210 203 199 198 198 197 190 180 173 173 176 177 175 177 179 180 179 180 178 177 181 184 181 178 175 177 177 175 176 177 176 177 185 184 192 204
189 191 182 192 203 194 206 253 240 216 211 202 208 209 201 196 194 191 185 177 175 178 179 181 180 180 181 179 178 179 176 174 178 181 180 177 177 178 178 175 176 179 181 181 185 191 192 198 208
Height
1513 1513 1515 1516 1520 1529 1528 1518 1509 1506 1504 1503 1503 1503 1508 1513 1517 1523 1522 1521 1524 1527 1529 1532 1535 1537 1539 1540 1541 1542 1543 1543 1544 1544 1545 1545 1545 1546 1546 1546 1546 1546 1546 1545 1545 1545 1544 1544 1544
1513 1514 1516 1516 1525 1534 1526 1512 1507 1502 1501 1502 1503 1505 1508 1512 1513 1516 1518 1521 1524 1526 1529 1532 1535 1537 1539 1540 1541 1542 1543 1544 1544 1545 1545 1545 1546 1546 1546 1546 1547 1547 1546 1546 1546 1546 1545 1545 1545
1513 1513 1515 1518 1525 1527 1518 1506 1502 1500 1500 1500 1503 1506 1508 1511 1513 1515 1517 1520 1524 1526 1529 1532 1534 1537 1538 1540 1541 1542 1543 1544 1544 1545 1545 1546 1546 1547 1547 1547 1547 1547 1547 1547 1547 1547 1547 1546 1546
1513 1514 1515 1521 1521 1514 1507 1502 1499 1499 1500 1500 1502 1507 1509 1512 1513 1515 1517 1520 1523 1526 1528 1531 1534 1536 1538 1539 1541 1542 1543 1544 1544 1545 1546 1546 1547 1547 1547 1547 1547 1548 1548 1548 1548 1548 1548 1547 1547
1512 1513 1518 1521 1516 1506 1500 1498 1498 1498 1499 1500 1502 1506 1509 1512 1513 1515 1517 1519 1522 1525 1528 1531 1533 1535 1537 1539 1540 1541 1543 1544 1545 1545 1546 1547 1547 1547 1547 1548 1548 1548 1548 1548 1548 1548 1548 1548 1548
1512 1513 1522 1523 1513 1503 1498 1496 1496 1497 1498 1499 1501 1506 1509 1511 1513 1515 1517 1519 1522 1524 1527 1530 1533 1535 1537 1538 1540 1541 1542 1543 1544 1545 1546 1547 1547 1547 1548 1548 1548 1549 1549 1549 1549 1549 1549 1549 1549
1511 1514 1518 1514 1510 1503 1496 1494 1494 1495 1496 1498 1499 1504 1508 1510 1513 1515 1517 1520 1522 1525 1527 1529 1531 1534 1536 1538 1539 1541 1542 1543 1544 1545 1546 1547 1547 1548 1548 1549 1549 1549 1549 1550 1550 1550 1550 1549 1549
1508 1512 1513 1511 1507 1502 1493 1492 1492 1493 1495 1497 1498 1501 1505 1508 1512 1515 1518 1520 1522 1524 1526 1528 1530 1532 1534 1536 1538 1540 1541 1543 1544 1545 1546 1547 1547 1548 1549 1549 1549 1550 1550 1550 1550 1550 1550 1550 1549
1506 1513 1514 1507 1503 1497 1492 1491 1491 1492 1493 1495 1497 1498 1500 1505 1509 1513 1516 1518 1520 1523 1525 1527 1529 1531 1533 1535 1537 1539 1541 1542 1543 1544 1545 1546 1547 1548 1549 1549 1550 1550 1550 1550 1550 1550 1550 1550 1550
1503 1511 1505 1497 1495 1493 1491 1490 1490 1491 1492 1494 1495 1497 1499 1502 1506 1509 1511 1513 1516 1519 1521 1524 1527 1529 1531 1533 1535 1537 1539 1541 1542 1544 1545 1546 1547 1548 1549 1549 1550 1550 1550 1550 1550 1550 1550 1550 1549
1498 1500 1496 1493 1492 1491 1490 1490 1489 1489 1492 1492 1493 1495 1498 1501 1503 1505 1507 1509 1512 1515 1518 1521 1524 1527 1529 1531 1533 1535 1537 1539 1541 1543 1544 1545 1546 1547 1548 1549 1549 1550 1550 1550 1550 1550 1550 1549 1549
1495 1492 1491 1491 1491 1491 1490 1489 1489 1488 1489 1490 1491 1493 1495 1497 1500 1502 1504 1507 1510 1513 1515 1518 1521 1524 1526 1529 1531 1533 1535 1537 1539 1541 1543 1544 1545 1546 1547 1548 1549 1549 1550 1550 1550 1549 1549 1549 1548
1491 1489 1488 1488 1489 1489 1489 1488 1487 1486 1487 1488 1490 1491 1493 1494 1496 1499 1501 1504 1506 1509 1512 1515 1518 1521 1523 1526 1528 1530 1533 1535 1537 1539 1541 1542 1544 1545 1546 1547 1548 1548 1549 1549 1549 1549 1548 1548 1547
1486 1486 1485 1485 1486 1486 1487 1485 1485 1483 1485 1486 1487 1489 1490 1492 1493 1496 1499 1501 1503 1505 1508 1511 1514 1517 1520 1522 1525 1527 1530 1533 1535 1537 1539 1541 1542 1544 1545 1546 1547 1547 1548 1548 1548 1548 1547 1547 1546
1483 1485 1484 1482 1482 1483 1485 1485 1481 1479 1481 1482 1483 1485 1487 1488 1490 1491 1493 1495 1498 1500 1504 1506 1510 1513 1516 1519 1522 1524 1527 1530 1532 1535 1537 1539 1540 1542 1543 1545 1545 1546 1547 1547 1547 1546 1546 1545 1544
1481 1485 1488 1479 1478 1479 1486 1486 1475 1475 1477 1477 1478 1480 1482 1484 1485 1487 1489 1491 1494 1496 1499 1502 1505 1508 1511 1514 1518 1521 1524 1527 1529 1532 1534 1536 1538 1540 1541 1543 1544 1544 1545 1545 1545 1545 1544 1544 1543
1483 1488 1486 1480 1474 1475 1480 1480 1471 1471 1472 1472 1473 1475 1476 1478 1480 1482 1484 1486 1489 1491 1494 1497 1500 1503 1507 1510 1514 1517 1521 1524 1527 1529 1531 1534 1536 1538 1539 1541 1542 1543 1543 1543 1544 1543 1543 1542 1541
1483 1484 1481 1479 1471 1473 1476 1474 1468 1467 1468 1468 1468 1469 1470 1471 1473 1476 1478 1481 1483 1486 1488 1491 1495 1498 1502 1506 1510 1514 1517 1520 1523 1526 1528 1531 1533 1535 1537 1538 1539 1540 1541 1541 1541 1541 1541 1540 1540
1472 1475 1476 1472 1467 1471 1473 1470 1465 1462 1463 1463 1462 1463 1463 1464 1467 1469 1472 1474 1477 1480 1482 1485 1489 1493 1497 1500 1504 1507 1511 1515 1518 1522 1525 1528 1530 1532 1534 1535 1537 1538 1538 1539 1539 1539 1539 1538 1538
1469 1472 1473 1470 1465 1468 1470 1467 1460 1457 1457 1455 1455 1455 1456 1457 1459 1461 1464 1466 1469 1472 1475 1479 1483 1486 1490 1494 1497 1502 1506 1510 1514 1518 1521 1524 1526 1529 1531 1532 1534 1535 1536 1536 1537 1537 1536 1536 1535
1464 1467 1468 1470 1465 1464 1468 1467 1460 1452 1450 1449 1448 1448 1449 1450 1451 1453 1456 1458 1462 1465 1468 1472 1476 1480 1484 1489 1494 1499 1504 1507 1511 1513 1516 1519 1522 1525 1527 1529 1531 1532 1533 1534 1534 1534 1534 1534 1533
1457 1455 1461 1466 1472 1475 1471 1477 1460 1451 1447 1444 1442 1442 1441 1442 1444 1446 1448 1451 1454 1458 1462 1466 1470 1474 1479 1483 1487 1491 1494 1498 1501 1506 1511 1515 1518 1521 1523 1526 1527 1529 1530 1531 1531 1531 1531 1531 1531
1448 1450 1457 1462 1468 1473 1471 1475 1460 1449 1446 1439 1435 1434 1434 1435 1437 1439 1441 1444 1448 1452 1456 1460 1465 1469 1473 1477 1481 1485 1489 1494 1499 1503 1508 1511 1514 1517 1520 1522 1524 1525 1526 1527 1528 1528 1529 1528 1528
1444 1451 1457 1463 1469 1474 1465 1470 1458 1445 1436 1432 1429 1428 1428 1429 1431 1433 1436 1439 1443 1447 1451 1455 1459 1463 1468 1472 1476 1480 1484 1489 1493 1498 1502 1506 1510 1513 1515 1518 1520 1521 1523 1524 1525 1525 1525 1525 1525
1441 1454 1467 1471 1473 1466 1456 1459 1445 1431 1425 1423 1422 1422 1422 1424 1426 1428 1431 1434 1437 1441 1445 1449 1453 1457 1462 1466 1470 1475 1479 1484 1488 1493 1497 1501 1504 1507 1510 1513 1515 1518 1519 1520 1521 1522 1522 1522 1522
1432 1441 1455 1463 1465 1460 1453 1450 1433 1419 1416 1415 1416 1417 1419 1420 1422 1424 1427 1429 1432 1436 1439 1443 1447 1451 1456 1460 1465 1470 1475 1479 1484 1488 1492 1496 1499 1503 1506 1509 1512 1514 1515 1517 1518 1518 1519 1519 1518
1428 1432 1435 1449 1454 1456 1449 1438 1425 1414 1413 1412 1413 1414 1414 1416 1418 1421 1423 1425 1428 1431 1434 1438 1442 1446 1451 1455 1460 1465 1470 1474 1478 1483 1488 1492 1495 1499 1502 1505 1508 1510 1511 1513 1514 1514 1515 1515 1515
1413 1422 1434 1442 1451 1453 1444 1436 1426 1412 1410 1410 1410 1410 1410 1413 1415 1417 1420 1422 1425 1427 1431 1435 1438 1442 1446 1451 1455 1460 1465 1469 1474 1479 1483 1487 1491 1495 1497 1500 1503 1505 1507 1508 1510 1510 1511 1511 1511
1412 1418 1421 1432 1437 1442 1444 1430 1405 1402 1401 1403 1404 1404 1406 1409 1411 1414 1417 1419 1422 1424 1427 1431 1434 1438 1442 1446 1451 1455 1460 1465 1469 1474 1478 1482 1486 1490 1493 1496 1498 1501 1502 1504 1505 1506 1506 1506 1506
1399 1404 1411 1422 1429 1430 1432 1420 1393 1393 1393 1395 1397 1400 1403 1406 1408 1411 1414 1416 1418 1421 1424 1427 1430 1434 1438 1442 1447 1451 1456 1460 1465 1469 1473 1477 1481 1485 1488 1491 1494 1496 1498 1499 1500 1501 1502 1502 1502